Temp
12 11 11 11 11 11 11 10 10 10 10 10 10 10 10 10 10 10 9 9 9 9 9 10 10 10 10 10 10 10 9 9 9 9 8 8 8 8 8 8 8 8 8
11 11 11 11 11 11 11 10 10 10 10 10 10 10 10 10 10 10 10 10 10 10 10 10 10 10 10 10 10 10 9 9 9 9 9 9 9 9 8 8 8 8 8
11 11 11 10 11 11 11 10 10 10 10 10 10 10 10 10 10 10 10 10 10 10 10 10 10 10 10 10 10 10 9 9 9 9 9 9 9 9 9 9 9 9 9
11 11 11 10 11 11 11 11 10 10 10 10 10 10 10 10 10 10 10 10 10 10 10 10 10 10 10 10 10 10 9 9 9 9 9 9 9 9 9 9 9 9 9
11 11 11 10 10 10 11 11 10 10 10 10 10 10 10 10 11 11 11 11 11 11 11 10 10 10 10 10 10 10 10 9 9 9 9 9 9 9 9 9 9 9 9
11 11 11 10 10 10 10 10 10 10 10 10 10 10 10 11 11 11 11 11 11 11 11 11 11 10 10 10 10 10 10 9 9 9 9 9 9 9 9 9 9 9 9
11 10 10 10 10 10 10 10 10 10 10 10 10 10 10 10 11 11 11 11 11 11 10 10 10 10 10 10 10 10 10 9 9 9 9 9 9 9 9 9 9 9 8
10 10 10 10 10 10 10 10 10 10 10 10 10 10 10 10 10 10 10 10 10 10 10 10 10 10 10 10 10 10 9 9 9 9 9 9 9 9 9 8 8 8 8
10 10 10 10 10 9 10 9 9 9 10 10 10 10 10 10 10 10 10 10 10 10 10 10 10 10 10 9 9 9 9 9 9 9 9 9 8 8 8 8 8 8 8
10 10 10 10 10 9 9 9 9 9 9 9 9 9 9 10 10 10 10 10 10 10 10 10 10 9 9 9 9 9 9 9 8 8 8 8 8 8 8 8 8 8 7
10 10 10 10 9 9 9 9 9 9 9 9 9 9 9 9 9 10 9 10 9 9 9 10 9 9 9 9 9 9 8 8 8 8 8 8 8 7 7 7 7 7 7
10 10 10 9 9 9 8 9 9 9 9 9 9 9 9 9 9 9 9 9 9 9 9 9 9 9 9 9 8 8 8 8 8 8 7 7 7 7 7 7 7 7 7
9 9 9 9 9 9 8 8 8 8 8 8 8 8 8 9 9 9 9 9 9 9 9 9 9 9 8 8 8 8 8 7 7 7 7 7 7 6 6 6 6 6 6
8 8 9 9 9 8 8 8 8 8 8 8 8 8 8 8 8 8 8 8 8 8 8 8 8 8 8 8 8 7 7 7 7 7 7 6 6 6 6 6 5 5 5
7 8 8 8 8 8 7 8 7 8 7 7 7 7 8 8 8 8 8 8 8 8 8 8 8 8 8 8 7 7 7 7 6 6 6 6 5 5 5 5 5 5 5
6 7 7 8 7 7 7 7 7 7 7 7 7 7 7 7 7 7 7 8 8 7 7 8 7 7 7 7 7 7 6 6 6 6 5 5 5 5 5 5 4 4 4
4 5 6 7 7 7 7 7 7 7 7 7 7 7 7 7 7 6 6 7 7 7 7 7 7 7 7 7 6 6 6 6 5 5 5 5 5 4 4 4 4 4 4
4 5 5 5 6 6 6 6 6 6 6 6 6 6 6 6 6 6 6 6 6 6 6 6 6 6 6 6 6 6 5 5 5 5 4 4 4 4 4 3 3 3 3
3 3 5 5 5 5 5 6 6 6 6 6 6 6 6 6 6 6 6 6 6 6 6 6 6 6 6 6 5 5 5 5 5 4 4 3 3 3 3 3 3 2 2
4 4 5 4 4 3 4 5 5 5 5 5 5 5 5 5 6 5 5 5 5 6 6 5 5 5 5 5 5 5 4 4 4 3 3 3 3 3 2 2 2 2 2
2 3 4 3 4 4 3 5 5 6 5 5 5 5 5 5 5 5 5 5 5 5 5 5 5 5 5 4 4 4 4 3 3 3 2 2 2 2 2 2 1 1 1
2 2 2 2 3 3 4 4 5 5 5 5 5 5 5 5 5 4 4 5 4 4 4 4 4 4 4 3 3 3 3 2 2 2 2 1 1 1 1 1 1 1 1
4 3 3 2 2 4 4 4 4 4 4 4 5 4 4 4 4 4 4 4 4 4 4 3 3 3 3 3 3 3 2 2 2 1 1 1 1 1 1 1 0 0 -0
4 3 3 2 2 4 4 4 5 5 5 4 4 3 3 4 4 3 3 3 3 3 3 3 3 3 3 2 2 1 1 1 1 1 0 0 -0 -0 -0 -0 -1 -1 -1
3 4 3 3 2 1 3 3 2 3 4 2 3 3 2 2 3 3 3 3 3 3 3 2 3 3 3 2 1 1 1 1 0 -0 -0 -0 -1 -1 -1 -2 -2 -2 -3
2 3 3 3 3 3 2 2 0 1 1 1 1 1 1 1 1 2 2 2 2 2 2 2 2 1 1 1 1 1 1 0 0 -0 -1 -1 -1 -2 -2 -3 -3 -3 -4
Height
3132 3134 3135 3137 3138 3139 3140 3141 3142 3144 3145 3146 3147 3148 3149 3150 3152 3153 3153 3154 3154 3155 3154 3154 3154 3154 3154 3154 3153 3153 3153 3154 3154 3154 3155 3155 3155 3155 3156 3156 3156 3156 3156
3131 3133 3135 3137 3137 3139 3140 3141 3142 3144 3145 3146 3148 3149 3150 3151 3152 3153 3153 3154 3154 3155 3155 3155 3155 3155 3154 3155 3154 3154 3154 3153 3154 3154 3155 3155 3156 3156 3156 3155 3156 3156 3156
3132 3133 3134 3136 3137 3138 3140 3141 3142 3144 3145 3146 3148 3149 3150 3151 3152 3153 3154 3154 3155 3155 3155 3155 3155 3155 3155 3155 3154 3155 3154 3154 3154 3154 3154 3154 3155 3155 3155 3155 3155 3155 3155
3131 3132 3133 3135 3136 3137 3139 3141 3142 3144 3145 3146 3148 3149 3149 3150 3151 3153 3154 3154 3155 3155 3156 3156 3156 3156 3155 3155 3155 3155 3154 3155 3154 3154 3154 3154 3154 3154 3155 3155 3155 3154 3154
3130 3131 3132 3133 3135 3136 3138 3140 3142 3143 3145 3146 3148 3149 3149 3150 3151 3152 3153 3154 3155 3155 3155 3156 3156 3156 3156 3155 3155 3154 3154 3154 3154 3154 3154 3154 3154 3154 3153 3154 3154 3154 3153
3128 3129 3130 3131 3133 3135 3136 3138 3140 3142 3144 3145 3147 3148 3150 3150 3151 3152 3153 3154 3155 3155 3155 3156 3156 3156 3156 3155 3155 3154 3154 3155 3155 3154 3154 3154 3154 3154 3154 3154 3153 3153 3152
3126 3126 3128 3129 3131 3133 3135 3136 3138 3141 3143 3145 3146 3148 3149 3150 3151 3152 3153 3153 3154 3155 3155 3156 3155 3155 3155 3155 3155 3155 3155 3155 3155 3154 3154 3154 3154 3154 3153 3153 3152 3152 3151
3122 3124 3125 3126 3128 3130 3133 3134 3136 3139 3141 3143 3145 3146 3148 3149 3150 3151 3152 3153 3154 3155 3155 3155 3155 3155 3155 3155 3154 3154 3154 3154 3154 3154 3154 3154 3153 3153 3153 3152 3152 3151 3150
3119 3121 3122 3124 3126 3127 3130 3133 3134 3137 3139 3141 3143 3144 3146 3147 3149 3150 3151 3152 3153 3154 3155 3155 3155 3155 3154 3154 3154 3154 3154 3153 3153 3153 3153 3153 3152 3152 3151 3151 3151 3150 3149
3116 3118 3119 3120 3123 3125 3128 3130 3132 3134 3137 3139 3141 3142 3144 3145 3147 3148 3149 3151 3152 3153 3154 3154 3155 3154 3154 3154 3153 3153 3153 3153 3153 3153 3153 3153 3152 3151 3150 3150 3149 3148 3147
3112 3114 3116 3117 3119 3122 3124 3127 3130 3131 3134 3137 3138 3140 3142 3143 3145 3146 3148 3150 3151 3152 3153 3153 3154 3154 3154 3153 3153 3153 3152 3152 3152 3152 3152 3151 3151 3150 3149 3148 3147 3146 3145
3107 3110 3112 3114 3115 3118 3121 3124 3127 3129 3132 3134 3136 3138 3140 3141 3144 3145 3146 3148 3150 3151 3152 3152 3153 3153 3153 3152 3152 3152 3151 3151 3151 3151 3150 3149 3149 3148 3146 3146 3145 3143 3142
3102 3104 3107 3109 3111 3114 3117 3120 3124 3126 3128 3131 3134 3136 3138 3139 3141 3143 3144 3146 3147 3149 3150 3151 3151 3151 3151 3151 3150 3150 3150 3150 3149 3149 3148 3147 3146 3145 3143 3142 3141 3140 3139
3096 3099 3101 3104 3106 3110 3112 3116 3119 3123 3126 3129 3131 3133 3135 3137 3139 3141 3141 3143 3145 3147 3148 3149 3149 3150 3149 3149 3149 3148 3148 3148 3147 3147 3146 3145 3144 3142 3141 3139 3138 3137 3136
3088 3093 3096 3098 3102 3105 3108 3111 3115 3119 3122 3125 3128 3131 3133 3136 3138 3140 3140 3141 3142 3144 3145 3146 3147 3147 3148 3147 3147 3147 3146 3146 3145 3144 3143 3142 3141 3140 3138 3137 3135 3134 3133
3081 3085 3089 3092 3095 3099 3104 3107 3111 3114 3118 3122 3125 3128 3131 3133 3136 3138 3139 3140 3139 3140 3142 3144 3144 3145 3146 3146 3145 3145 3144 3143 3143 3142 3141 3140 3139 3137 3136 3134 3133 3131 3130
3072 3078 3081 3085 3089 3092 3097 3103 3106 3109 3113 3117 3121 3124 3127 3130 3132 3135 3137 3138 3139 3137 3140 3141 3142 3143 3143 3143 3143 3143 3142 3141 3140 3139 3138 3137 3135 3134 3132 3131 3129 3128 3126
3045 3063 3074 3079 3081 3085 3089 3096 3101 3105 3109 3112 3116 3120 3123 3127 3129 3131 3135 3136 3137 3136 3137 3138 3139 3140 3140 3141 3140 3140 3140 3139 3137 3136 3135 3134 3132 3130 3129 3127 3126 3124 3122
3052 3044 3062 3070 3074 3078 3082 3087 3093 3099 3104 3108 3112 3116 3119 3123 3126 3128 3130 3133 3134 3134 3134 3135 3136 3137 3137 3137 3137 3136 3136 3135 3135 3133 3132 3130 3129 3127 3125 3123 3122 3120 3118
3052 3056 3044 3047 3062 3071 3077 3079 3085 3091 3097 3103 3108 3112 3115 3119 3123 3124 3125 3129 3130 3131 3131 3131 3132 3133 3133 3133 3133 3133 3133 3132 3131 3130 3129 3127 3125 3123 3121 3120 3118 3115 3113
3045 3046 3050 3044 3047 3061 3069 3072 3079 3086 3092 3098 3103 3107 3112 3115 3120 3120 3121 3124 3126 3127 3129 3127 3128 3129 3129 3130 3130 3130 3129 3129 3128 3126 3124 3122 3120 3118 3117 3115 3113 3111 3108
3042 3045 3044 3044 3036 3049 3062 3068 3076 3084 3090 3094 3098 3102 3108 3111 3114 3117 3118 3119 3121 3123 3125 3125 3124 3125 3125 3126 3126 3126 3125 3126 3124 3122 3120 3118 3116 3114 3112 3110 3108 3105 3103
3034 3040 3042 3042 3041 3048 3056 3063 3070 3077 3082 3087 3094 3099 3103 3106 3110 3113 3114 3117 3117 3118 3120 3120 3122 3122 3122 3122 3122 3123 3121 3120 3119 3117 3115 3114 3112 3110 3108 3105 3102 3098 3095
3028 3034 3038 3040 3039 3040 3051 3058 3066 3073 3079 3086 3092 3095 3099 3102 3105 3108 3110 3113 3112 3114 3116 3115 3117 3118 3118 3118 3118 3117 3116 3115 3113 3113 3111 3109 3107 3105 3102 3099 3096 3091 3086
3019 3027 3033 3036 3037 3033 3043 3051 3059 3068 3073 3079 3085 3090 3094 3096 3099 3103 3106 3108 3109 3110 3112 3111 3112 3114 3115 3116 3115 3114 3112 3110 3109 3108 3106 3104 3102 3099 3096 3093 3088 3084 3078
3013 3020 3025 3030 3036 3042 3044 3042 3045 3059 3067 3073 3079 3085 3090 3092 3095 3097 3099 3103 3105 3105 3106 3107 3108 3109 3110 3110 3110 3109 3108 3107 3104 3102 3101 3099 3097 3097 3093 3089 3083 3077 3071
Wind_Speed
9 11 11 11 11 9 9 9 9 9 8 7 8 8 8 8 7 7 7 6 6 5 6 6 7 8 10 11 12 12 11 9 8 6 5 4 4 3 2 2 1 1 2
7 10 11 12 12 11 10 10 10 10 10 9 8 9 9 8 8 7 7 8 7 7 7 7 7 8 9 10 9 10 9 8 8 7 6 6 5 3 3 3 3 3 3
7 10 11 13 13 12 12 11 11 10 10 10 9 9 9 8 8 8 8 8 8 7 7 7 8 8 8 8 8 8 7 6 6 5 5 5 5 4 4 4 5 5 6
8 10 12 13 14 13 13 12 11 11 10 10 9 9 9 8 8 8 8 7 7 7 7 7 8 8 8 7 6 5 4 4 4 4 3 4 4 5 6 6 6 7 7
10 9 13 14 15 15 15 14 13 12 11 10 10 9 9 8 8 8 7 6 6 6 6 6 7 7 7 6 5 4 3 3 2 2 2 3 4 4 6 6 6 7 8
13 12 13 17 16 17 16 16 14 13 12 11 10 9 8 8 8 8 7 6 5 4 5 6 7 8 7 6 4 3 3 2 2 2 2 3 3 4 5 6 8 9 9
13 13 13 18 18 18 18 17 16 15 14 12 11 10 9 8 8 8 7 6 5 3 3 4 6 7 6 6 5 4 3 2 1 1 2 2 2 4 6 7 9 9 9
15 14 14 18 20 19 19 18 18 16 15 13 12 11 11 10 9 8 7 6 5 3 2 3 5 6 6 6 5 4 3 2 1 1 1 2 3 5 6 8 9 9 9
19 18 16 18 21 20 20 20 19 18 16 15 13 12 12 12 10 9 8 6 4 3 1 2 4 5 5 5 5 5 4 4 3 3 3 4 5 7 9 10 10 11 10
22 20 18 18 21 21 20 21 20 20 18 16 14 13 13 13 12 10 9 7 5 3 0 2 4 5 5 5 5 5 4 4 4 4 5 5 7 9 10 12 11 13 12
25 22 21 19 22 22 21 21 21 21 19 17 15 14 14 13 13 11 10 8 5 3 1 2 3 4 5 5 5 4 4 4 4 5 7 8 9 11 11 12 13 14 14
27 24 23 23 24 25 23 22 21 20 19 18 16 14 14 14 13 12 10 8 6 4 3 3 3 4 5 5 6 5 5 5 5 7 9 11 12 12 12 12 13 14 15
28 28 26 25 26 27 24 23 22 22 20 18 16 15 15 15 15 14 12 10 7 6 5 4 4 5 5 6 6 6 6 6 8 9 11 13 13 13 13 14 15 16 17
33 30 29 28 28 28 28 25 23 22 21 19 17 15 15 15 15 14 13 11 8 7 6 5 5 6 7 7 7 8 8 9 11 13 13 14 14 14 15 16 16 17 17
36 33 32 32 29 30 31 28 25 24 22 20 18 16 16 15 15 14 13 12 10 8 7 6 6 7 7 8 9 9 9 11 13 14 15 16 16 17 18 17 18 18 19
40 37 35 34 33 33 33 30 27 26 24 21 19 17 16 16 15 14 13 13 11 9 7 7 8 8 8 9 10 10 11 12 14 15 16 17 18 18 19 19 19 20 20
46 39 39 35 35 36 34 32 29 28 25 23 21 19 18 17 15 13 13 13 12 9 8 8 9 9 9 10 11 12 13 14 15 16 17 19 19 20 20 20 21 21 22
43 43 40 38 35 38 37 34 31 28 27 25 23 21 19 18 15 14 14 13 13 10 9 9 10 10 10 11 12 12 13 15 16 17 18 20 21 21 21 22 22 22 24
38 45 41 42 39 39 40 37 34 31 30 27 25 22 20 19 18 16 14 14 14 13 10 10 11 11 11 12 13 13 14 16 18 19 19 20 21 22 22 22 22 23 25
39 48 46 60 44 39 40 39 36 34 32 29 26 24 22 21 19 17 14 15 14 14 12 10 11 13 13 14 14 15 16 17 18 20 21 22 22 23 23 24 24 25 26
26 41 50 47 46 39 41 39 37 35 32 30 28 25 23 21 20 18 16 15 14 14 15 11 11 14 14 14 15 16 17 19 20 21 22 23 23 23 24 25 26 27 28
30 35 40 48 40 29 35 33 32 30 30 29 29 26 24 22 21 19 17 16 15 13 15 13 13 14 15 15 16 18 18 19 21 23 22 23 24 25 26 28 29 30 31
37 30 34 33 43 31 32 32 33 33 35 33 29 27 24 23 21 20 17 17 14 13 15 13 15 15 14 15 17 19 20 21 23 23 23 23 24 26 27 29 32 34 36
42 35 30 25 38 28 31 34 37 31 32 30 26 25 24 22 20 19 17 18 14 14 14 12 13 15 16 17 18 19 20 22 24 24 23 25 26 28 29 31 33 37 40
47 42 38 31 18 23 24 33 37 37 33 27 28 28 26 23 22 18 17 17 16 14 14 11 12 14 18 20 19 20 21 24 25 24 24 26 27 29 31 33 35 38 42
36 44 41 33 27 22 23 22 34 37 31 30 28 27 26 24 22 20 18 18 16 12 10 12 13 16 17 17 20 22 24 24 24 24 25 27 28 27 30 32 36 40 43
Wind_Direction
254 225 212 201 186 182 169 165 161 160 155 151 142 135 130 131 133 132 128 119 104 88 73 62 56 52 55 60 63 71 80 87 86 86 88 85 81 84 81 79 62 7 347
204 221 219 208 193 186 177 173 169 169 161 159 152 146 142 140 135 125 117 106 95 83 74 60 51 49 47 52 57 63 67 73 75 71 70 69 58 45 42 18 10 359 337
253 225 217 213 203 191 184 179 177 176 169 165 159 154 149 144 136 125 115 106 98 86 72 60 50 47 47 49 49 54 53 55 63 60 52 50 45 34 30 27 358 342 337
288 248 227 217 207 197 190 185 183 184 176 172 167 162 156 149 140 132 123 113 103 90 75 59 51 45 46 50 47 48 49 48 45 52 41 30 29 29 32 23 350 348 342
285 264 232 219 214 201 195 191 190 188 185 180 175 169 163 155 149 142 134 126 112 95 78 62 51 45 45 52 57 54 40 37 26 30 24 18 18 14 2 3 346 341 335
276 261 237 220 214 206 200 193 195 195 193 190 185 179 172 164 161 157 151 144 129 108 84 64 49 43 38 38 41 40 39 25 6 7 13 20 4 353 350 341 334 333 329
267 252 236 223 214 210 204 198 197 201 200 199 197 192 187 182 175 170 166 159 145 121 77 59 50 44 29 25 23 20 12 21 13 360 357 2 351 338 341 334 329 325 324
245 245 238 227 217 211 208 202 199 204 204 203 203 202 200 195 191 183 178 173 162 143 90 45 36 35 20 12 6 1 357 353 351 343 334 331 325 327 323 318 318 317 316
242 236 235 231 220 213 209 208 201 205 207 208 208 209 206 202 197 190 186 183 173 159 93 26 19 19 11 4 357 352 346 339 337 325 322 322 322 321 317 318 322 309 310
244 237 231 232 222 216 215 211 207 204 209 210 212 213 211 204 200 194 190 188 186 180 186 2 1 1 359 355 352 346 337 329 324 317 313 312 313 312 312 314 311 309 307
239 236 235 231 219 216 214 216 213 208 209 213 213 215 210 206 200 194 191 193 196 199 242 317 336 343 346 345 344 337 330 322 312 309 309 308 308 307 307 307 306 307 305
240 243 239 232 219 215 215 214 215 212 211 214 215 213 209 202 202 195 192 193 202 213 236 271 303 322 333 337 335 332 329 313 306 305 306 307 307 306 306 307 307 304 303
238 243 236 231 222 214 214 213 215 211 210 213 217 212 208 201 201 196 194 196 203 219 240 266 289 307 321 328 328 322 313 306 305 307 308 308 307 309 309 308 305 303 302
235 239 229 225 222 215 211 211 211 211 211 212 215 214 209 206 204 203 196 199 205 220 239 258 282 302 313 319 320 317 312 308 308 310 310 310 311 309 307 307 307 306 305
233 233 230 221 219 217 213 209 206 207 209 210 213 214 212 212 212 212 207 203 206 221 239 259 277 292 305 312 312 309 305 306 309 311 312 313 312 310 309 309 307 306 306
231 230 229 220 216 215 216 209 204 204 207 209 210 211 212 213 217 222 218 221 206 217 235 256 270 283 294 300 300 298 300 305 309 311 312 311 310 310 309 308 307 307 305
231 229 231 223 215 214 214 210 205 203 204 206 209 209 213 212 213 224 234 228 230 215 235 251 267 278 286 291 293 296 300 305 309 311 311 309 309 309 308 307 307 307 306
233 215 230 228 218 214 210 208 206 204 204 205 206 207 210 216 214 219 237 242 239 237 238 253 265 272 281 287 289 290 296 302 304 306 307 308 307 306 306 305 306 307 308
240 239 226 230 220 213 207 204 203 202 204 205 206 207 208 216 216 216 226 240 246 244 243 255 266 273 279 281 283 287 294 298 301 302 304 305 304 304 303 305 307 308 309
237 228 237 218 208 211 206 202 202 201 202 203 205 208 209 216 219 218 219 238 243 250 246 250 264 272 276 279 282 287 293 298 301 303 305 304 303 304 306 307 308 309 310
244 232 247 220 215 199 203 201 203 204 202 203 206 207 214 215 224 222 219 233 246 255 259 249 260 270 275 276 282 288 294 298 300 301 303 303 303 304 305 307 308 308 309
241 240 231 229 205 190 199 201 204 208 207 205 208 207 213 216 222 227 230 226 241 252 262 264 264 266 269 275 283 288 292 295 298 302 303 303 303 305 306 307 307 307 307
235 242 241 245 206 197 203 200 203 205 207 208 211 210 211 216 222 228 231 240 239 247 256 268 270 268 271 279 285 287 292 297 300 301 301 300 302 305 307 309 310 309 309
229 237 240 256 212 222 200 203 215 219 215 212 213 213 215 219 224 228 232 243 241 250 256 260 269 271 274 277 282 287 291 297 301 301 300 302 305 307 310 311 310 310 309
223 230 240 243 240 225 215 206 198 210 212 210 215 214 215 214 221 229 235 245 244 251 256 260 265 274 281 284 285 290 299 299 298 299 303 305 307 309 311 311 310 309 307
224 228 236 238 237 232 224 210 200 201 202 207 209 211 214 214 217 221 225 233 244 250 251 254 265 278 279 285 292 298 298 297 299 303 304 303 304 304 304 306 306 305 304